Regional Weather Roundup
Issued by NWS

Home | Current Version | Previous Version | Text Only | Print | Product List | Glossary On
Versions: 1 2 3 4 5 6 7 8 9 10 11 12 13 14 15 16 17 18 19 20 21 22 23 24 25 26 27 28
000
ASPQ40 PGUM 110212
RWRPQ
WEATHER ROUNDUP FOR THE MARIANAS AND MICRONESIA
NATIONAL WEATHER SERVICE TIYAN GU
1200 PM CHST SUN DEC 11 2016

GUZ001>004-110300-
MARIANA ISLANDS-

CITY           SKY/WX    TMP DP  RH WIND       PRES   REMARKS
GUAM AIRPORT   PTSUNNY   88  75  66 E15G21    29.83F HX  97
ANDERSEN AFB   PTSUNNY   82  73  74 E15       29.84F
ROTA AIRPORT   MOSUNNY   82  73  74 NE14G22   29.83F
TINIAN AP      MOSUNNY   84  73  70 E13       29.82F HX  91
SAIPAN AP      MOSUNNY   86  73  66 E15       29.83F HX  93

$$

PMZ161-110300-
REPUBLIC OF PALAU-

CITY           SKY/WX    TMP DP  RH WIND       PRES   REMARKS
KOROR AP       PTSUNNY   84  79  84 NE6       29.79S HX  96
KOROR WSO      CLOUDY    84  75  74 SE6       29.80S HX  92

$$

PMZ171>174-110300-
FEDERATED STATES OF MICRONESIA-

CITY           SKY/WX    TMP DP  RH WIND       PRES   REMARKS
YAP AIRPORT    PTSUNNY   86  77  74 E10       29.75S HX  97
CHUUK AP       MOSUNNY   90  77  66 NE8       29.78F HX 102
POHNPEI AP     NOT AVBL
POHNPEI WSO    CLOUDY    84  75  74 E9        29.79F HX  92
KOSRAE AP      NOT AVBL

$$

PMZ181-110300-
REPUBLIC OF THE MARSHALL ISLANDS-

CITY           SKY/WX    TMP DP  RH WIND       PRES   REMARKS
KWAJALEIN AP   PTSUNNY   79  77  94 E9        29.77F
MAJURO AP      NOT AVBL
MAJURO WSO     MOSUNNY   84  77  79 NE15      29.74F HX  94

$$





USA.gov is the U.S. government's official web portal to all federal, state and local government web resources and services.